Location: Bethune
(34.4150°N, 80.3490°W)
Time: 02:20:36
(UTC-04:00)

ISS - Visible Passes

Search period start: 01 May 2017 00:00
Search period end: 11 May 2017 00:00
Orbit: 401 x 409 km, 51.6° (Epoch: 01 May)

Date Brightness Start Highest point End Pass type
(mag) Time Alt. Az. Time Alt. Az. Time Alt. Az.
01 May -1.4 06:00:53 10° S 06:03:17 19° SE 06:05:42 10° E visible
03 May -3.3 05:52:13 10° SSW 05:55:26 56° SE 05:58:38 10° NE visible
04 May -2.1 05:02:03 19° S 05:03:26 25° SE 05:06:11 10° ENE visible
05 May -0.9 04:12:11 12° ESE 04:12:11 12° ESE 04:12:53 10° ESE visible
05 May -3.3 05:44:52 13° WSW 05:47:40 47° NW 05:50:51 10° NE visible
06 May -3.9 04:54:54 54° SSW 04:55:33 77° SE 04:58:49 10° NE visible
07 May -1.6 04:04:52 23° E 04:04:52 23° E 04:06:29 10° ENE visible
07 May -1.9 05:37:32 10° W 05:40:01 20° NNW 05:42:35 10° NNE visible
08 May -2.9 04:47:24 35° NW 04:47:45 36° NW 04:50:49 10° NNE visible
09 May -1.7 03:57:11 27° NE 03:57:11 27° NE 03:58:50 10° NE visible
09 May -1.1 05:31:32 10° NW 05:32:30 11° NNW 05:33:28 10° N visible
10 May -1.7 04:39:34 17° NW 04:40:05 17° NNW 04:42:21 10° NNE visible
